Decimomannu, Italy

12:28 AM CET on January 20, 2018 (GMT +0100)
Decimomannu Mil

Weather History for LIED - October, 2013

Change the Weather History Date:

Tuesday, October 22, 2013

  Actual Average Record
Temperature  
Mean Temperature 74 °F -  
Max Temperature 80 °F 67 °F 87 °F (2004)
Min Temperature 68 °F 49 °F 39 °F (2007)
Cooling Degree Days 9    
Growing Degree Days 24 (Base 50)    
Moisture  
Dew Point 68 °F    
Average Humidity 81    
Maximum Humidity 94    
Minimum Humidity 63    
Precipitation  
Precipitation 0.00 in 0.08 in - ()
Sea Level Pressure  
Sea Level Pressure 30.07 in    
Wind  
Wind Speed 11 mph ()    
Max Wind Speed 23 mph    
Max Gust Speed 33 mph    
Visibility 6.7 miles    
Events      
Averages and records for this station are not official NWS values.
T = Trace of Precipitation, MM = Missing Value Source: Averaged Metar Reports

Daily Weather History Graph

Daily Weather History Graph

Search for Another Location

Airport or City:

Trip Planner

Search our weather history database for the weather conditions in past years. The results will help you decide how hot, cold, wet, or windy it might be!

Date:

Astronomy

Oct. 22, 2013 Rise Set
Actual Time 7:41 AM CEST 6:35 PM CEST
Civil Twilight 7:13 AM CEST 7:02 PM CEST
Nautical Twilight 6:42 AM CEST 7:33 PM CEST
Astronomical Twilight 6:11 AM CEST 8:04 PM CEST
Moon 9:03 PM CEST (10/22) 10:54 AM CEST (10/22)
Length of Visible Light 11h 48m
Length of Day
10h 54m
Waning Gibbous, 88% of the Moon is Illuminated
Oct 22
Waning Gibbous
Oct 27
Last Quarter
Nov 3
New
Nov 10
First Quarter
Nov 17
Full

Hourly Weather History & Observations

Time (CEST) Temp. Heat Index Dew Point Humidity Pressure Visibility Wind Dir Wind Speed Gust Speed Precip Events Conditions
12:55 AM 71.6 °F - 66.2 °F 83% 30.12 in 6.2 mi SE 11.5 mph - N/A   Partly Cloudy
1:55 AM 69.8 °F - 66.2 °F 88% 30.12 in 6.2 mi SE 10.4 mph - N/A   Scattered Clouds
2:00 AM 71 °F - 66 °F 79% 30.12 in 6 mi SE 10.4 mph - -   Mostly Cloudy
2:55 AM 69.8 °F - 66.2 °F 88% 30.09 in 6.2 mi East 8.1 mph - N/A   Mostly Cloudy
3:55 AM 69.8 °F - 66.2 °F 88% 30.09 in 6.2 mi ESE 9.2 mph - N/A   Mostly Cloudy
4:55 AM 71.6 °F - 66.2 °F 83% 30.09 in 6.2 mi ESE 9.2 mph - N/A   Mostly Cloudy
5:00 AM 71 °F - 67 °F 83% 30.10 in 6 mi ESE 9.2 mph - -   Mostly Cloudy
5:55 AM 69.8 °F - 66.2 °F 88% 30.09 in 6.2 mi East 8.1 mph - N/A   Mostly Cloudy
6:55 AM 69.8 °F - 64.4 °F 83% 30.09 in 6.2 mi ESE 9.2 mph - N/A   Scattered Clouds
7:55 AM 68.0 °F - 64.4 °F 88% 30.06 in 6.2 mi ESE 11.5 mph - N/A   Scattered Clouds
8:00 AM 69 °F - 64 °F 79% 30.09 in 6 mi ESE 11.5 mph - -   Mostly Cloudy
8:55 AM 71.6 °F - 66.2 °F 83% 30.09 in 6.2 mi SE 11.5 mph - N/A   Scattered Clouds
9:55 AM 75.2 °F - 68.0 °F 78% 30.09 in 6.2 mi SE 18.4 mph - N/A   Scattered Clouds
10:55 AM 77.0 °F - 68.0 °F 74% 30.09 in 6.2 mi SE 20.7 mph - N/A   Scattered Clouds
11:00 AM 77 °F - 69 °F 68% 30.09 in 7 mi SE 20.7 mph - -   Partly Cloudy
11:55 AM 78.8 °F - 69.8 °F 74% 30.09 in 6.2 mi SE 18.4 mph - N/A   Scattered Clouds
12:55 PM 80.6 °F 83.9 °F 69.8 °F 70% 30.09 in 6.2 mi SE 19.6 mph 33.4 mph N/A   Scattered Clouds
1:55 PM 80.6 °F 83.9 °F 69.8 °F 70% 30.06 in 6.2 mi SSE 20.7 mph - N/A   Scattered Clouds
2:00 PM 80 °F - 70 °F 63% 30.07 in 9 mi SSE 20.7 mph - -   Partly Cloudy
2:55 PM 78.8 °F - 69.8 °F 74% 30.06 in 6.2 mi SSE 23.0 mph - N/A   Scattered Clouds
3:55 PM 77.0 °F - 69.8 °F 78% 30.04 in 6.2 mi SSE 20.7 mph - N/A   Partly Cloudy
4:55 PM 77.0 °F - 69.8 °F 78% 30.04 in 6.2 mi SE 18.4 mph - N/A   Partly Cloudy
5:00 PM 77 °F - 70 °F 73% 30.04 in 12 mi SE 18.4 mph - -   Scattered Clouds
5:55 PM 75.2 °F - 69.8 °F 83% 30.01 in 6.2 mi SE 16.1 mph - N/A   Partly Cloudy
6:55 PM 71.6 °F - 68.0 °F 88% 30.04 in 6.2 mi SE 11.5 mph - N/A   Partly Cloudy
7:55 PM 71.6 °F - 69.8 °F 94% 30.04 in 6.2 mi SE 11.5 mph - N/A   Partly Cloudy
8:00 PM 72 °F - 69 °F 87% 30.06 in 9 mi SE 11.5 mph - -   Scattered Clouds
8:55 PM 71.6 °F - 68.0 °F 88% 30.06 in 6.2 mi SE 8.1 mph - N/A   Partly Cloudy
9:55 PM 68.0 °F - 66.2 °F 94% 30.06 in 6.2 mi ESE 5.8 mph - N/A   Partly Cloudy
10:55 PM 69.8 °F - 66.2 °F 88% 30.06 in - ESE 8.1 mph - N/A   Clear
11:00 PM 70 °F - 66 °F 85% 30.09 in 9 mi ESE 8.1 mph - -  
11:55 PM 71.6 °F - 66.2 °F 83% 30.06 in 6.2 mi SE 12.7 mph - N/A   Partly Cloudy